TimeMST,TemperatureF,Dew PointF,Humidity,Sea Level PressureIn,VisibilityMPH,Wind Direction,Wind SpeedMPH,Gust SpeedMPH,PrecipitationIn,Events,Conditions,WindDirDegrees,DateUTC
12:53 AM,17.1,12.0,81,29.93,10.0,NNW,3.5,-,N/A,,Clear,330,2013-01-08 07:53:00
1:53 AM,18.0,12.9,81,29.92,10.0,Calm,Calm,-,N/A,,Clear,0,2013-01-08 08:53:00
2:53 AM,17.1,12.0,81,29.93,10.0,SW,3.5,-,N/A,,Clear,230,2013-01-08 09:53:00
3:53 AM,18.0,12.0,78,29.95,10.0,South,3.5,-,N/A,,Clear,190,2013-01-08 10:53:00
4:53 AM,15.1,10.9,84,29.99,10.0,East,3.5,-,N/A,,Clear,90,2013-01-08 11:53:00
5:53 AM,15.1,10.9,84,30.01,10.0,Calm,Calm,-,N/A,,Clear,0,2013-01-08 12:53:00
6:53 AM,12.9,9.0,84,30.04,10.0,SE,3.5,-,N/A,,Clear,140,2013-01-08 13:53:00
7:53 AM,12.0,8.1,84,30.06,10.0,Variable,5.8,-,N/A,,Clear,0,2013-01-08 14:53:00
8:53 AM,18.0,10.9,74,30.08,10.0,East,5.8,-,N/A,,Clear,100,2013-01-08 15:53:00
9:53 AM,16.0,10.9,81,30.09,10.0,SSW,3.5,-,N/A,,Clear,200,2013-01-08 16:53:00
10:53 AM,21.9,15.1,75,30.09,10.0,SSE,4.6,-,N/A,,Clear,150,2013-01-08 17:53:00
11:53 AM,25.0,17.1,72,30.08,10.0,Calm,Calm,-,N/A,,Clear,0,2013-01-08 18:53:00
12:53 PM,30.0,18.0,61,30.08,10.0,Calm,Calm,-,N/A,,Clear,0,2013-01-08 19:53:00
1:53 PM,30.0,19.9,66,30.10,10.0,WNW,3.5,-,N/A,,Clear,290,2013-01-08 20:53:00
2:53 PM,35.1,21.0,57,30.12,10.0,SE,10.4,-,N/A,,Clear,140,2013-01-08 21:53:00
3:53 PM,33.1,21.9,64,30.13,10.0,SE,5.8,-,N/A,,Clear,130,2013-01-08 22:53:00
4:53 PM,28.9,19.0,67,30.16,10.0,SE,8.1,-,N/A,,Scattered Clouds,130,2013-01-08 23:53:00
5:53 PM,30.0,18.0,61,30.17,10.0,ESE,13.8,-,N/A,,Mostly Cloudy,120,2013-01-09 00:53:00
6:53 PM,28.0,17.1,63,30.19,10.0,SE,12.7,-,N/A,,Clear,130,2013-01-09 01:53:00
7:53 PM,24.1,15.1,69,30.22,10.0,Calm,Calm,-,N/A,,Clear,0,2013-01-09 02:53:00
8:53 PM,18.0,12.9,81,30.25,10.0,SSW,11.5,-,N/A,,Clear,210,2013-01-09 03:53:00
10:53 PM,16.0,10.0,77,30.26,10.0,Calm,Calm,-,N/A,,Clear,0,2013-01-09 05:53:00
11:53 PM,12.0,7.0,80,30.28,10.0,SSW,5.8,-,N/A,,Clear,210,2013-01-09 06:53:00